User: anonymous   Login
Location: Bakov nad Jizerou
(50.4784°N, 14.9394°E)
Time: 05:58:30
(UTC+00:00)
Language:

Cosmos 1908 - Orbit

View from above orbital plane
View from above orbital plane
View from above satellite
View from above satellite

Ground track
Ground track

The orbit data is extracted from the following two-line orbital elements,

1 18748U 88001A   21263.25580844  .00000912  00000-0  46438-4 0  9996
2 18748  82.4722 322.6066 0011637 268.4471  91.5428 15.15535956841041
Epoch (UTC): 20 September 2021 06:08:21
Eccentricity: 0.0011637
inclination: 82.4722°
perigee height: 511 km
apogee height: 527 km
right ascension of ascending node: 322.6066°
argument of perigee: 268.4471°
revolutions per day: 15.15535956
mean anomaly at epoch: 91.5428°
orbit number at epoch: 84104

The dashed part of the orbit path shows where the satellite is in the earth's shadow,  

DLR